User: anonymous   Login
Location: Unspecified
(0.0000°N, 0.0000°E)
Time: 07:52:23
(UTC+00:00)
Language:

COSMOS 2439 - Orbit

View from above orbital plane
View from above orbital plane
View from above satellite
View from above satellite

Ground track
Ground track

The orbit data is extracted from the following two-line orbital elements,

1 32956U 08025D   17328.69692070  .00000032  00000-0  16315-3 0  9994
2 32956  82.5038 141.0383 0020108 299.7633  60.1447 12.43003500431360
Epoch (UTC): 24 November 2017 16:43:33
Eccentricity: 0.0020108
inclination: 82.5038°
perigee height: 1478 km
apogee height: 1510 km
right ascension of ascending node: 141.0383°
argument of perigee: 299.7633°
revolutions per day: 12.43003500
mean anomaly at epoch: 60.1447°
orbit number at epoch: 43136

The dashed part of the orbit path shows where the satellite is in the earth's shadow,  

DLR